SL-16 R/B (19120 NORAD) Tracking and Keplerian Element Data

This shows tracking and keplerian element data for the satellite.

Feedback or suggestion? Click here.




ElementValue
Catalog19120
NameSL-16 R/B
Epoch Orbit84673
Epoch Day12.92116213
Epoch Year2024
RAAN291.8694
Inclination71.0151
Eccentricity0.0019627
Argument of Perigee109.0419
Mean Anonmoly251.2834
Mean Motion14.19369459
Decay Rate-1E-08
L11 19120U 88039B 24012.92116213 -.00000001 00000+0 22343-4 0 9994
L22 19120 71.0151 291.8694 0019627 109.0419 251.2834 14.19369459846732



Live tracking and technical data element details for SL-16 R/B (NORAD 19120). SL-16 R/B can be tracked NOW for your location showing map with azimuth and elevation plus other details from your city location.







IsCatalogInMostPopularTable: catalog: 19120, numindb: 339
Update: records affected: 1



GetName: 19120 SL-16 R/B

Hit Count: updated at: Sun, 14 Apr 2024 23:27:43 GMT